This is the latest recevied weather packets stored in our database for station/object KC7UNY-13. If no packets are shown the sender has not sent any weather packets the latest 10 day(s).
| Time | Temp. | Humidity | Pressure | Rain* | Wind** | Luminosity | Snow |
|---|---|---|---|---|---|---|---|
| 1788132055 | 40.56° C | 30% | 1008.6 hPa | 0 mm | - | 293 W/m² | - |
| 1788131751 | 40.56° C | 30% | 1008.6 hPa | 0 mm | - | 306 W/m² | - |
| 1788131449 | 41.11° C | 29% | 1008.7 hPa | 0 mm | - | 323 W/m² | - |
| 1788131145 | 40.56° C | 29% | 1009 hPa | 0 mm | - | 338 W/m² | - |
| 1788130840 | 41.67° C | 28% | 1008.9 hPa | 0 mm | - | 353 W/m² | - |
| 1788130535 | 41.11° C | 30% | 1009 hPa | 0 mm | - | 369 W/m² | - |
| 1788130230 | 41.11° C | 30% | 1009.1 hPa | 0 mm | - | 384 W/m² | - |
| 1788129928 | 40.56° C | 30% | 1009.3 hPa | 0 mm | - | 397 W/m² | - |
| 1788129625 | 40.56° C | 29% | 1009.3 hPa | 0 mm | - | 412 W/m² | - |
| 1788129321 | 40.56° C | 29% | 1009.4 hPa | 0 mm | - | 430 W/m² | - |
| 1788129015 | 40.56° C | 30% | 1009.5 hPa | 0 mm | - | 447 W/m² | - |
| 1788128710 | 41.11° C | 30% | 1009.7 hPa | 0 mm | - | 460 W/m² | - |
| 1788128406 | 41.11° C | 30% | 1009.9 hPa | 0 mm | - | 474 W/m² | - |
| 1788128101 | 40.56° C | 30% | 1009.6 hPa | 0 mm | - | 487 W/m² | - |
| 1788127792 | 40.56° C | 31% | 1009.8 hPa | 0 mm | - | 501 W/m² | - |
| 1788127492 | 40° C | 31% | 1010 hPa | 0 mm | - | 515 W/m² | - |
| 1788127189 | 40.56° C | 31% | 1009.9 hPa | 0 mm | - | 530 W/m² | - |
| 1788126884 | 41.11° C | 30% | 1010 hPa | 0 mm | - | 541 W/m² | - |
| 1788126579 | 40.56° C | 30% | 1010.1 hPa | 0 mm | - | 554 W/m² | - |
| 1788126274 | 40.56° C | 30% | 1010.4 hPa | 0 mm | - | 563 W/m² | - |
| 1788125974 | 40.56° C | 30% | 1010.3 hPa | 0 mm | - | 576 W/m² | - |
| 1788125669 | 40.56° C | 31% | 1010.7 hPa | 0 mm | - | 590 W/m² | - |
| 1788125365 | 40° C | 31% | 1010.6 hPa | 0 mm | - | 602 W/m² | - |
| 1788125060 | 40.56° C | 31% | 1011 hPa | 0 mm | - | 613 W/m² | - |
| 1788124759 | 41.11° C | 30% | 1010.9 hPa | 0 mm | - | 621 W/m² | - |
* Rain latest hour (hover to see other rain measurements)
** Current wind speed in m/s (hover to see current wind gust speed)